FW4443 Weather Reports


Display with metric or nautical units.
time (UTC)temp
F
wind
direction
speed
MPH
gust
MPH
rain 1hr
in
rain 24hr
in
rain mn
in
humidity
%
barometer
mb
20260505173524 68 135 4.0 11.0 0.00 0.00 0.00 32 1011.8
20260505173208 68 180 5.0 14.0 0.00 0.00 0.00 32 1012.0
20260505171942 68 0 6.0 14.0 0.00 0.00 0.00 32 1011.9
20260505171622 69 0 4.0 14.0 0.00 0.00 0.00 31 1011.8
20260505171259 69 94 5.0 14.0 0.00 0.00 0.00 33 1011.8
20260505170935 68 134 5.0 10.0 0.00 0.00 0.00 33 1011.8
20260505170613 68 0 5.0 10.0 0.00 0.00 0.00 33 1011.8
20260505170253 67 0 5.0 10.0 0.00 0.00 0.00 33 1011.8
20260505165937 68 0 4.0 10.0 0.00 0.00 0.00 34 1011.9
20260505165622 67 154 3.0 9.0 0.00 0.00 0.00 35 1011.9
20260505164655 66 0 2.0 7.0 0.00 0.00 0.00 38 1012.0
20260505164333 65 140 1.0 5.0 0.00 0.00 0.00 36 1012.1
20260505164012 65 123 2.0 5.0 0.00 0.00 0.00 38 1012.0
20260505163655 65 169 2.0 5.0 0.00 0.00 0.00 38 1012.0
20260505163336 65 165 2.0 5.0 0.00 0.00 0.00 36 1012.1
20260505163021 65 0 1.0 5.0 0.00 0.00 0.00 37 1012.1
20260505162401 64 0 1.0 5.0 0.00 0.00 0.00 39 1012.0
20260505161745 64 0 1.0 5.0 0.00 0.00 0.00 38 1012.2
20260505161420 64 0 1.0 5.0 0.00 0.00 0.00 43 1012.1
20260505161102 63 0 1.0 5.0 0.00 0.00 0.00 39 1012.1
20260505160740 63 0 1.0 8.0 0.00 0.00 0.00 39 1012.2
20260505160414 63 0 2.0 8.0 0.00 0.00 0.00 40 1012.2
20260505153053 61 0 3.0 8.0 0.00 0.00 0.00 45 1012.1
20260505152728 60 0 3.0 8.0 0.00 0.00 0.00 45 1012.1
20260505152405 60 0 3.0 8.0 0.00 0.00 0.00 46 1012.0
20260505152039 60 0 3.0 8.0 0.00 0.00 0.00 45 1012.1
20260505151723 60 0 3.0 7.0 0.00 0.00 0.00 45 1012.1
20260505151408 60 0 3.0 7.0 0.00 0.00 0.00 45 1011.9
20260505151046 60 0 3.0 7.0 0.00 0.00 0.00 45 1011.9
20260505150724 60 0 3.0 7.0 0.00 0.00 0.00 44 1011.8
20260505150406 60 0 3.0 7.0 0.00 0.00 0.00 45 1011.8
20260505140546 57 0 2.0 7.0 0.00 0.00 0.00 48 1011.4
20260505125010 56 155 4.0 10.0 0.00 0.00 0.00 48 1010.6
20260505124655 57 159 4.0 12.0 0.00 0.00 0.00 48 1010.5
20260505124332 57 207 3.0 12.0 0.00 0.00 0.00 48 1010.5
20260505124014 57 169 4.0 12.0 0.00 0.00 0.00 47 1010.5
20260505123651 57 177 4.0 12.0 0.00 0.00 0.00 47 1010.5
20260505123335 57 178 4.0 12.0 0.00 0.00 0.00 47 1010.5
20260505123013 57 175 3.0 12.0 0.00 0.00 0.00 47 1010.6
20260505122652 57 163 3.0 9.0 0.00 0.00 0.00 47 1010.5
20260505122332 57 225 3.0 9.0 0.00 0.00 0.00 47 1010.5
20260505122014 57 171 3.0 9.0 0.00 0.00 0.00 47 1010.5
20260505121649 57 173 3.0 9.0 0.00 0.00 0.00 47 1010.5
20260505121323 57 187 3.0 9.0 0.00 0.00 0.00 47 1010.5
20260505120957 57 187 3.0 8.0 0.00 0.00 0.00 46 1010.4
20260505120635 57 202 3.0 8.0 0.00 0.00 0.00 46 1010.5
20260505120315 58 190 3.0 12.0 0.00 0.00 0.00 46 1010.4
20260505115955 58 192 4.0 12.0 0.00 0.00 0.00 46 1010.5
20260505115634 58 209 4.0 12.0 0.00 0.00 0.00 46 1010.4
20260505115316 58 171 5.0 12.0 0.00 0.00 0.00 46 1010.5
20260505114958 58 175 5.0 12.0 0.00 0.00 0.00 46 1010.4
20260505114639 58 167 5.0 12.0 0.00 0.00 0.00 47 1010.3
20260505114322 58 153 5.0 12.0 0.00 0.00 0.00 46 1010.4
20260505113957 58 206 5.0 12.0 0.00 0.00 0.00 46 1010.4
20260505113638 58 217 4.0 12.0 0.00 0.00 0.00 45 1010.4
20260505113316 58 204 3.0 11.0 0.00 0.00 0.00 45 1010.5
20260505112956 58 174 3.0 11.0 0.00 0.00 0.00 46 1010.4
20260505112635 58 176 3.0 11.0 0.00 0.00 0.00 46 1010.4
20260505112311 58 190 4.0 11.0 0.00 0.00 0.00 46 1010.5
20260505111950 58 171 4.0 11.0 0.00 0.00 0.00 45 1010.4
20260505111629 58 169 4.0 11.0 0.00 0.00 0.00 45 1010.3
20260505111312 58 194 5.0 13.0 0.00 0.00 0.00 44 1010.3
20260505110948 58 146 6.0 13.0 0.00 0.00 0.00 44 1010.2
20260505110630 58 134 7.0 13.0 0.00 0.00 0.00 44 1010.2
20260505110315 59 153 6.0 13.0 0.00 0.00 0.00 44 1010.1
20260505102111 59 161 8.0 13.0 0.00 0.00 0.00 44 1010.2
20260505101755 59 145 7.0 13.0 0.00 0.00 0.00 44 1010.2
20260505101434 59 162 6.0 13.0 0.00 0.00 0.00 44 1010.1
20260505101119 59 148 6.0 13.0 0.00 0.00 0.00 44 1010.1
20260505100804 59 188 5.0 13.0 0.00 0.00 0.00 43 1010.1
20260505100450 59 153 5.0 13.0 0.00 0.00 0.00 43 1010.1
20260505100125 59 158 5.0 12.0 0.00 0.00 0.00 43 1010.0
20260505095759 59 161 4.0 12.0 0.00 0.00 0.00 43 1010.0
20260505095433 60 161 5.0 12.0 0.00 0.00 0.00 42 1010.1
20260505095109 60 155 4.0 12.0 0.00 0.00 0.00 42 1010.0
20260505094750 60 0 5.0 12.0 0.00 0.00 0.00 42 1010.0
20260505094436 60 0 4.0 10.0 0.00 0.00 0.00 41 1010.0
20260505094113 60 0 4.0 10.0 0.00 0.00 0.00 41 1010.0
20260505093755 60 0 3.0 9.0 0.00 0.00 0.00 41 1010.1
20260505093438 60 0 4.0 13.0 0.00 0.00 0.00 41 1010.1
20260505093114 60 0 4.0 13.0 0.00 0.00 0.00 41 1010.1
20260505092753 60 0 5.0 13.0 0.00 0.00 0.00 41 1010.1
20260505092430 60 0 6.0 13.0 0.00 0.00 0.00 41 1010.1
20260505092107 60 0 7.0 13.0 0.00 0.00 0.00 41 1010.1
20260505091748 60 0 7.0 13.0 0.00 0.00 0.00 41 1010.1
20260505091429 60 0 6.0 11.0 0.00 0.00 0.00 41 1010.2
20260505091107 60 0 6.0 11.0 0.00 0.00 0.00 41 1010.2
20260505090749 60 0 6.0 11.0 0.00 0.00 0.00 41 1010.1
20260505090431 60 0 5.0 10.0 0.00 0.00 0.00 41 1010.1
20260505090113 60 0 5.0 10.0 0.00 0.00 0.00 41 1010.0
20260505085750 60 0 5.0 10.0 0.00 0.00 0.00 41 1010.0
20260505085426 60 0 5.0 9.0 0.00 0.00 0.00 40 1010.1
20260505085109 60 0 4.0 9.0 0.00 0.00 0.00 40 1010.1
20260505084752 61 0 4.0 9.0 0.00 0.00 0.00 40 1010.2
20260505084437 61 0 4.0 9.0 0.00 0.00 0.00 40 1010.2
20260505084115 61 0 4.0 9.0 0.00 0.00 0.00 40 1010.2
20260505083756 61 0 4.0 9.0 0.00 0.00 0.00 40 1010.3
20260505083441 61 0 5.0 9.0 0.00 0.00 0.00 39 1010.2
20260505083124 61 0 5.0 9.0 0.00 0.00 0.00 39 1010.3
20260505082803 61 0 5.0 9.0 0.00 0.00 0.00 39 1010.3
20260505082441 61 0 4.0 9.0 0.00 0.00 0.00 39 1010.1
20260505082121 61 0 3.0 9.0 0.00 0.00 0.00 39 1010.2
20260505081800 61 0 3.0 8.0 0.00 0.00 0.00 39 1010.2
20260505081445 61 0 3.0 8.0 0.00 0.00 0.00 38 1010.2
20260505081119 61 0 3.0 8.0 0.00 0.00 0.00 38 1010.2
20260505080757 62 0 3.0 8.0 0.00 0.00 0.00 38 1010.2
20260505080434 62 0 3.0 8.0 0.00 0.00 0.00 38 1010.2
20260505075817 62 0 2.0 4.0 0.00 0.00 0.00 37 1010.2
20260505075452 62 0 2.0 4.0 0.00 0.00 0.00 36 1010.2
20260505075130 62 0 2.0 4.0 0.00 0.00 0.00 37 1010.3
20260505074804 63 0 1.0 4.0 0.00 0.00 0.00 36 1010.3
20260505074442 63 0 1.0 9.0 0.00 0.00 0.00 36 1010.3
20260505074123 63 0 2.0 9.0 0.00 0.00 0.00 36 1010.3
20260505073804 63 0 2.0 9.0 0.00 0.00 0.00 36 1010.2
20260505073444 63 0 3.0 14.0 0.00 0.00 0.00 36 1010.1
20260505073120 63 0 5.0 14.0 0.00 0.00 0.00 36 1010.0
20260505072758 63 0 6.0 14.0 0.00 0.00 0.00 36 1009.8
20260505072438 63 0 6.0 15.0 0.00 0.00 0.00 36 1009.7
20260505072115 63 0 8.0 15.0 0.00 0.00 0.00 36 1009.7
20260505071758 63 0 8.0 15.0 0.00 0.00 0.00 36 1009.7
20260505071139 63 0 8.0 19.0 0.00 0.00 0.00 36 1009.7
20260505070819 64 0 8.0 19.0 0.00 0.00 0.00 35 1009.6
20260505070454 64 0 10.0 19.0 0.00 0.00 0.00 35 1009.7
20260505070129 64 0 10.0 19.0 0.00 0.00 0.00 35 1009.6
20260505065503 64 0 8.0 17.0 0.00 0.00 0.00 35 1009.6
20260505064841 64 0 8.0 20.0 0.00 0.00 0.00 35 1009.7
20260505064516 64 0 8.0 20.0 0.00 0.00 0.00 35 1009.7
20260505064157 64 0 9.0 20.0 0.00 0.00 0.00 35 1009.8
20260505063838 64 0 9.0 20.0 0.00 0.00 0.00 35 1009.7
20260505063520 64 0 9.0 20.0 0.00 0.00 0.00 35 1009.8
20260505062857 64 0 8.0 16.0 0.00 0.00 0.00 34 1009.8
20260505062237 65 0 8.0 17.0 0.00 0.00 0.00 34 1009.7
20260505061611 65 0 8.0 20.0 0.00 0.00 0.00 33 1009.7
20260505061253 65 0 9.0 20.0 0.00 0.00 0.00 33 1009.8
20260505060633 65 0 8.0 20.0 0.00 0.00 0.00 33 1009.7
20260505060310 65 0 8.0 20.0 0.00 0.00 0.00 33 1009.7
20260505055954 65 0 8.0 20.0 0.00 0.00 0.00 33 1009.8
20260505055638 65 0 7.0 20.0 0.00 0.00 0.00 32 1009.9
20260505055320 65 0 6.0 15.0 0.00 0.00 0.00 32 1009.9
20260505054954 65 0 6.0 19.0 0.00 0.00 0.00 32 1009.9
20260505054629 65 0 6.0 19.0 0.00 0.00 0.00 32 1009.8
20260505054304 65 0 6.0 19.0 0.00 0.00 0.00 32 1009.9
20260505053947 66 0 7.0 19.0 0.00 0.00 0.00 32 1009.9
20260505053624 66 0 7.0 19.0 0.00 0.00 0.00 31 1009.8
20260505053259 66 0 8.0 19.0 0.00 0.00 0.00 31 1009.8
20260505052935 66 0 8.0 16.0 0.00 0.00 0.00 31 1009.7
20260505052610 66 0 6.0 16.0 0.00 0.00 0.00 31 1009.7
20260505051952 66 0 6.0 11.0 0.00 0.00 0.00 31 1009.7
20260505051627 66 0 6.0 11.0 0.00 0.00 0.00 31 1009.8
20260505051308 66 0 5.0 11.0 0.00 0.00 0.00 31 1009.8
20260505050950 66 0 4.0 10.0 0.00 0.00 0.00 31 1009.7
20260505050626 66 0 4.0 13.0 0.00 0.00 0.00 31 1009.7
20260505050309 66 0 4.0 13.0 0.00 0.00 0.00 30 1009.8
20260505041711 68 0 9.0 20.0 0.00 0.00 0.00 28 1009.2
20260505041351 68 0 9.0 20.0 0.00 0.00 0.00 28 1009.2
20260505041033 68 0 11.0 24.0 0.00 0.00 0.00 28 1009.2
20260505040716 68 0 11.0 24.0 0.00 0.00 0.00 28 1009.1
20260505035748 68 0 9.0 24.0 0.00 0.00 0.00 27 1009.0
20260505035431 69 0 10.0 24.0 0.00 0.00 0.00 27 1008.9
20260505035117 69 0 10.0 23.0 0.00 0.00 0.00 27 1008.9
20260505034803 69 0 10.0 23.0 0.00 0.00 0.00 27 1008.6
20260505034140 69 0 10.0 23.0 0.00 0.00 0.00 26 1008.5
20260505033520 69 0 9.0 20.0 0.00 0.00 0.00 26 1008.4
20260505033159 69 0 8.0 19.0 0.00 0.00 0.00 26 1008.5
20260505032842 69 0 8.0 19.0 0.00 0.00 0.00 25 1008.4
20260505032524 69 0 9.0 19.0 0.00 0.00 0.00 25 1008.3
20260505032207 69 0 7.0 19.0 0.00 0.00 0.00 25 1008.3
20260505031851 70 0 7.0 17.0 0.00 0.00 0.00 25 1008.2
20260505031527 70 0 6.0 18.0 0.00 0.00 0.00 25 1008.2
20260505031203 70 0 6.0 18.0 0.00 0.00 0.00 25 1008.1
20260505030848 70 0 7.0 18.0 0.00 0.00 0.00 25 1008.0
20260505030530 70 0 7.0 18.0 0.00 0.00 0.00 25 1008.0
20260505030209 70 0 9.0 18.0 0.00 0.00 0.00 25 1007.8
20260505025854 70 0 9.0 18.0 0.00 0.00 0.00 24 1007.9
20260505025534 70 0 9.0 17.0 0.00 0.00 0.00 24 1007.8
20260505025211 70 0 9.0 18.0 0.00 0.00 0.00 24 1007.8
20260505024853 70 0 9.0 18.0 0.00 0.00 0.00 24 1007.6
20260505024533 71 0 9.0 18.0 0.00 0.00 0.00 24 1007.5
20260505024211 71 0 10.0 22.0 0.00 0.00 0.00 23 1007.5
20260505023556 71 0 10.0 22.0 0.00 0.00 0.00 23 1007.4
20260505023233 71 0 10.0 22.0 0.00 0.00 0.00 22 1007.4
20260505022915 71 0 10.0 22.0 0.00 0.00 0.00 22 1007.4
20260505022555 71 0 10.0 22.0 0.00 0.00 0.00 22 1007.4
20260505022236 72 0 10.0 20.0 0.00 0.00 0.00 21 1007.4
20260505021917 72 0 10.0 20.0 0.00 0.00 0.00 21 1007.4
20260505021552 72 0 11.0 20.0 0.00 0.00 0.00 20 1007.4
20260505021234 72 0 11.0 20.0 0.00 0.00 0.00 20 1007.4
20260505020914 72 0 9.0 19.0 0.00 0.00 0.00 20 1007.4
20260505020551 72 0 9.0 19.0 0.00 0.00 0.00 20 1007.3
20260505020235 72 0 8.0 19.0 0.00 0.00 0.00 20 1007.4
20260505015911 73 0 7.0 19.0 0.00 0.00 0.00 19 1007.3
20260505015551 73 0 7.0 15.0 0.00 0.00 0.00 19 1007.3
20260505014926 73 0 9.0 23.0 0.00 0.00 0.00 19 1007.3
20260505014608 73 0 10.0 23.0 0.00 0.00 0.00 18 1007.4
20260505014245 73 0 10.0 23.0 0.00 0.00 0.00 18 1007.3
20260505013921 73 0 9.0 24.0 0.00 0.00 0.00 18 1007.3
20260505013559 73 0 8.0 24.0 0.00 0.00 0.00 17 1007.3
20260505013236 73 0 9.0 24.0 0.00 0.00 0.00 17 1007.3
20260505012613 73 0 10.0 24.0 0.00 0.00 0.00 17 1007.4
20260505012259 74 0 9.0 24.0 0.00 0.00 0.00 17 1007.3
20260505011937 74 0 9.0 19.0 0.00 0.00 0.00 17 1007.1
20260505011017 74 0 9.0 20.0 0.00 0.00 0.00 16 1007.3
20260505010654 74 0 9.0 20.0 0.00 0.00 0.00 16 1007.3
20260505010036 74 0 10.0 24.0 0.00 0.00 0.00 16 1007.3
20260505005713 74 0 11.0 24.0 0.00 0.00 0.00 15 1007.3
20260505005050 75 0 10.0 24.0 0.00 0.00 0.00 16 1007.4
20260505004736 75 0 8.0 24.0 0.00 0.00 0.00 16 1007.3
20260505004417 75 0 8.0 24.0 0.00 0.00 0.00 16 1007.3
20260505004059 75 0 8.0 22.0 0.00 0.00 0.00 17 1007.2
20260505003742 75 0 9.0 22.0 0.00 0.00 0.00 17 1007.3
20260505003417 75 0 10.0 22.0 0.00 0.00 0.00 17 1007.3
20260505003100 75 0 10.0 22.0 0.00 0.00 0.00 17 1007.3
20260505002444 75 0 10.0 22.0 0.00 0.00 0.00 18 1007.3
20260505002126 75 0 10.0 20.0 0.00 0.00 0.00 19 1007.3
20260505001809 75 0 10.0 20.0 0.00 0.00 0.00 18 1007.5
20260505001445 75 0 10.0 21.0 0.00 0.00 0.00 18 1007.4
20260505001122 75 0 11.0 21.0 0.00 0.00 0.00 18 1007.4
20260505000804 76 0 12.0 21.0 0.00 0.00 0.00 18 1007.5
20260505000439 76 0 11.0 21.0 0.00 0.00 0.00 18 1007.5
20260505000114 76 0 11.0 21.0 0.00 0.00 0.00 18 1007.4
20260504235748 76 0 10.0 20.0 0.00 0.00 0.00 18 1007.5
20260504235124 76 0 10.0 19.0 0.00 0.00 0.00 18 1007.3
20260504234507 76 0 9.0 19.0 0.00 0.00 0.00 18 1007.4
20260504234147 76 0 9.0 19.0 0.00 0.00 0.00 18 1007.4
20260504233827 76 0 9.0 19.0 0.00 0.00 0.00 17 1007.4
20260504233501 76 0 10.0 19.0 0.00 0.00 0.00 16 1007.5
20260504233147 76 0 10.0 22.0 0.00 0.00 0.00 15 1007.6
20260504232824 76 0 10.0 22.0 0.00 0.00 0.00 13 1007.5
20260504232508 76 0 11.0 22.0 0.00 0.00 0.00 13 1007.6
20260504232147 76 0 10.0 24.0 0.00 0.00 0.00 14 1007.6
20260504231228 76 0 12.0 26.0 0.00 0.00 0.00 13 1007.6
20260504230907 76 0 13.0 26.0 0.00 0.00 0.00 13 1007.5
20260504230542 76 0 13.0 26.0 0.00 0.00 0.00 13 1007.6
20260504230220 76 0 12.0 27.0 0.00 0.00 0.00 13 1007.6
20260504225905 76 0 12.0 27.0 0.00 0.00 0.00 13 1007.7
20260504225240 76 0 13.0 27.0 0.00 0.00 0.00 13 1007.7
20260504224923 76 0 13.0 27.0 0.00 0.00 0.00 13 1007.8
20260504224608 77 0 13.0 27.0 0.00 0.00 0.00 13 1007.8
20260504224247 77 0 11.0 26.0 0.00 0.00 0.00 13 1007.8
20260504223925 77 0 11.0 26.0 0.00 0.00 0.00 12 1007.7
20260504223608 77 0 11.0 26.0 0.00 0.00 0.00 13 1007.8
20260504222944 77 0 12.0 26.0 0.00 0.00 0.00 14 1007.8
20260504222622 77 0 13.0 26.0 0.00 0.00 0.00 13 1007.8
20260504222300 77 0 12.0 25.0 0.00 0.00 0.00 13 1007.8
20260504221937 77 0 13.0 25.0 0.00 0.00 0.00 12 1007.9
20260504221617 77 0 13.0 25.0 0.00 0.00 0.00 13 1007.8
20260504221252 77 0 14.0 24.0 0.00 0.00 0.00 12 1008.0
20260504220633 78 0 13.0 24.0 0.00 0.00 0.00 12 1008.0
20260504220317 78 0 12.0 29.0 0.00 0.00 0.00 11 1008.2
20260504215700 77 0 11.0 29.0 0.00 0.00 0.00 13 1008.2
20260504215337 77 0 12.0 29.0 0.00 0.00 0.00 12 1008.2
20260504215015 78 0 13.0 29.0 0.00 0.00 0.00 12 1008.2
20260504214357 78 0 12.0 27.0 0.00 0.00 0.00 13 1008.2
20260504213742 78 0 12.0 28.0 0.00 0.00 0.00 13 1008.3
20260504213425 78 0 13.0 28.0 0.00 0.00 0.00 13 1008.3
20260504213106 78 0 14.0 28.0 0.00 0.00 0.00 14 1008.2
20260504212744 78 0 14.0 28.0 0.00 0.00 0.00 15 1008.2
20260504212426 78 0 13.0 28.0 0.00 0.00 0.00 14 1008.3
20260504212102 78 0 12.0 28.0 0.00 0.00 0.00 13 1008.2
20260504211743 78 0 12.0 26.0 0.00 0.00 0.00 14 1008.4
20260504211428 78 0 11.0 26.0 0.00 0.00 0.00 15 1008.3
20260504210806 78 0 11.0 25.0 0.00 0.00 0.00 17 1008.3
20260504210149 78 0 13.0 25.0 0.00 0.00 0.00 16 1008.4
20260504205524 78 0 13.0 23.0 0.00 0.00 0.00 15 1008.5
20260504205201 78 0 13.0 23.0 0.00 0.00 0.00 14 1008.5
20260504204537 78 0 12.0 23.0 0.00 0.00 0.00 14 1008.4
20260504204215 78 0 12.0 23.0 0.00 0.00 0.00 13 1008.4
20260504203849 77 0 12.0 22.0 0.00 0.00 0.00 14 1008.4
20260504203532 77 0 12.0 22.0 0.00 0.00 0.00 12 1008.4
20260504203212 77 0 11.0 22.0 0.00 0.00 0.00 14 1008.3
20260504202851 78 0 12.0 23.0 0.00 0.00 0.00 13 1008.4
20260504202527 78 0 12.0 23.0 0.00 0.00 0.00 13 1008.4
20260504201903 77 0 12.0 23.0 0.00 0.00 0.00 16 1008.4
20260504201540 77 0 12.0 23.0 0.00 0.00 0.00 15 1008.5
20260504201217 77 0 12.0 23.0 0.00 0.00 0.00 14 1008.5
20260504200852 77 0 12.0 22.0 0.00 0.00 0.00 17 1008.3
20260504200529 77 0 11.0 22.0 0.00 0.00 0.00 16 1008.3
20260504200207 77 0 11.0 24.0 0.00 0.00 0.00 19 1008.4
20260504195852 77 0 10.0 24.0 0.00 0.00 0.00 19 1008.5
20260504195530 77 0 12.0 24.0 0.00 0.00 0.00 18 1008.5
20260504195205 77 0 13.0 24.0 0.00 0.00 0.00 18 1008.5
20260504194549 77 0 12.0 24.0 0.00 0.00 0.00 20 1008.6
20260504193930 77 0 14.0 24.0 0.00 0.00 0.00 19 1008.6
20260504193615 77 0 13.0 24.0 0.00 0.00 0.00 20 1008.6
20260504193250 77 0 12.0 24.0 0.00 0.00 0.00 19 1008.6
20260504192925 76 0 11.0 24.0 0.00 0.00 0.00 20 1008.6
20260504192611 76 0 10.0 24.0 0.00 0.00 0.00 20 1008.8
20260504192247 76 0 11.0 24.0 0.00 0.00 0.00 21 1008.8
20260504191921 75 0 12.0 24.0 0.00 0.00 0.00 21 1008.7
20260504191558 75 0 12.0 24.0 0.00 0.00 0.00 21 1008.8
20260504190934 76 0 11.0 20.0 0.00 0.00 0.00 23 1008.9
20260504190312 75 0 11.0 19.0 0.00 0.00 0.00 23 1009.1
20260504185957 75 0 11.0 18.0 0.00 0.00 0.00 23 1009.1
20260504185636 75 0 10.0 18.0 0.00 0.00 0.00 22 1009.3
20260504185312 75 0 10.0 22.0 0.00 0.00 0.00 24 1009.2
20260504184948 75 0 11.0 22.0 0.00 0.00 0.00 24 1009.4
20260504184629 75 0 13.0 22.0 0.00 0.00 0.00 24 1009.4
20260504184310 75 0 14.0 22.0 0.00 0.00 0.00 26 1009.4
20260504183946 75 0 13.0 22.0 0.00 0.00 0.00 24 1009.3
20260504183623 75 0 13.0 22.0 0.00 0.00 0.00 25 1009.3
20260504183301 74 0 12.0 20.0 0.00 0.00 0.00 26 1009.4
20260504182943 74 0 13.0 20.0 0.00 0.00 0.00 27 1009.4
20260504182625 73 0 13.0 26.0 0.00 0.00 0.00 27 1009.5
20260504182304 73 0 13.0 26.0 0.00 0.00 0.00 25 1009.5
20260504181943 73 0 13.0 26.0 0.00 0.00 0.00 26 1009.4
20260504181626 73 0 13.0 26.0 0.00 0.00 0.00 27 1009.4
20260504181003 73 0 13.0 26.0 0.00 0.00 0.00 26 1009.5
20260504180646 73 0 12.0 22.0 0.00 0.00 0.00 29 1009.5
20260504180327 72 0 12.0 22.0 0.00 0.00 0.00 28 1009.5
20260504180005 73 0 12.0 22.0 0.00 0.00 0.00 28 1009.4
20260504175646 73 0 12.0 22.0 0.00 0.00 0.00 29 1009.5
20260504175327 72 0 12.0 22.0 0.00 0.00 0.00 28 1009.4
20260504175012 73 0 11.0 19.0 0.00 0.00 0.00 29 1009.6
20260504174650 73 0 11.0 17.0 0.00 0.00 0.00 29 1009.5
20260504174328 72 0 11.0 22.0 0.00 0.00 0.00 30 1009.6